TimeCDT,TemperatureF,Dew PointF,Humidity,Sea Level PressureIn,VisibilityMPH,Wind Direction,Wind SpeedMPH,Gust SpeedMPH,PrecipitationIn,Events,Conditions,WindDirDegrees,DateUTC
12:53 AM,75.9,52.0,43,30.04,10.0,South,6.9,-,N/A,,Clear,170,2012-09-11 05:53:00
1:53 AM,73.0,57.0,57,30.05,10.0,South,10.4,-,N/A,,Clear,170,2012-09-11 06:53:00
2:53 AM,72.0,59.0,64,30.04,10.0,South,9.2,-,N/A,,Clear,170,2012-09-11 07:53:00
3:53 AM,70.0,59.0,68,30.04,10.0,South,6.9,-,N/A,,Clear,170,2012-09-11 08:53:00
4:53 AM,69.1,60.1,73,30.04,10.0,SSE,3.5,-,N/A,,Clear,160,2012-09-11 09:53:00
5:53 AM,66.9,59.0,76,30.05,10.0,SE,3.5,-,N/A,,Clear,140,2012-09-11 10:53:00
6:53 AM,64.9,57.9,78,30.06,10.0,Calm,Calm,-,N/A,,Clear,0,2012-09-11 11:53:00
7:53 AM,64.9,57.0,75,30.07,9.0,NNE,3.5,-,N/A,,Clear,30,2012-09-11 12:53:00
8:53 AM,72.0,60.1,66,30.07,10.0,Calm,Calm,-,N/A,,Clear,0,2012-09-11 13:53:00
9:53 AM,75.9,57.9,54,30.07,10.0,SSE,5.8,-,N/A,,Clear,160,2012-09-11 14:53:00
10:53 AM,80.1,54.0,40,30.09,10.0,Variable,5.8,-,N/A,,Clear,0,2012-09-11 15:53:00
11:53 AM,82.0,53.1,37,30.08,10.0,ESE,6.9,-,N/A,,Clear,110,2012-09-11 16:53:00
12:53 PM,84.9,46.9,27,30.05,10.0,Variable,5.8,-,N/A,,Clear,0,2012-09-11 17:53:00
1:53 PM,87.1,46.9,25,30.02,10.0,ESE,10.4,-,N/A,,Clear,120,2012-09-11 18:53:00
2:53 PM,89.1,46.0,22,29.99,10.0,North,-9999.0,-,N/A,,Clear,0,2012-09-11 19:53:00
3:53 PM,90.0,48.0,24,29.96,10.0,Variable,6.9,-,N/A,,Clear,0,2012-09-11 20:53:00
4:53 PM,91.0,46.9,22,29.95,10.0,SSE,8.1,-,N/A,,Clear,160,2012-09-11 21:53:00
5:53 PM,90.0,46.9,23,29.96,10.0,SSE,9.2,-,N/A,,Clear,150,2012-09-11 22:53:00
6:53 PM,89.1,48.9,25,29.96,10.0,SE,9.2,-,N/A,,Clear,140,2012-09-11 23:53:00
7:53 PM,84.9,50.0,30,29.96,10.0,ESE,6.9,-,N/A,,Clear,120,2012-09-12 00:53:00
8:53 PM,82.0,51.1,34,29.98,10.0,ESE,5.8,-,N/A,,Clear,110,2012-09-12 01:53:00
9:53 PM,79.0,51.1,38,29.99,10.0,ESE,4.6,-,N/A,,Clear,120,2012-09-12 02:53:00
10:53 PM,77.0,51.1,40,30.00,10.0,Calm,Calm,-,N/A,,Clear,0,2012-09-12 03:53:00
11:53 PM,79.0,61.0,54,30.01,10.0,SSE,5.8,-,N/A,,Clear,150,2012-09-12 04:53:00